�搅�E���B���j�^�v������
Date,Time,�搅(cps),���B(cps),���J
2024/03/12,00:00,5.3,4.8,��
2024/03/12,00:10,5.3,4.7,��
2024/03/12,00:20,5.3,4.8,��
2024/03/12,00:30,5.3,4.8,��
2024/03/12,00:40,5.2,4.7,��
2024/03/12,00:50,5.2,4.9,��
2024/03/12,01:00,5.3,4.8,��
2024/03/12,01:10,5.2,4.7,��
2024/03/12,01:20,5.1,4.8,��
2024/03/12,01:30,5.2,4.7,��
2024/03/12,01:40,5.2,4.7,��
2024/03/12,01:50,5.2,4.7,��
2024/03/12,02:00,5.2,4.7,��
2024/03/12,02:10,5.2,4.6,��
2024/03/12,02:20,5.2,4.7,��
2024/03/12,02:30,5.3,4.7,��
2024/03/12,02:40,5.3,4.9,��
2024/03/12,02:50,5.1,4.7,��
2024/03/12,03:00,5.1,4.6,��
2024/03/12,03:10,5.1,4.7,��
2024/03/12,03:20,5.2,4.7,��
2024/03/12,03:30,5.1,4.6,��
2024/03/12,03:40,5.2,4.7,��
2024/03/12,03:50,5.2,4.8,��
2024/03/12,04:00,5.2,4.6,��
2024/03/12,04:10,5.2,4.6,��
2024/03/12,04:20,5.0,4.7,��
2024/03/12,04:30,5.1,4.8,��
2024/03/12,04:40,5.1,4.7,��
2024/03/12,04:50,5.1,4.7,��
2024/03/12,05:00,5.1,4.7,��
2024/03/12,05:10,5.2,4.7,��
2024/03/12,05:20,5.2,4.7,��
2024/03/12,05:30,5.2,4.5,��
2024/03/12,05:40,5.1,4.8,��
2024/03/12,05:50,5.1,4.8,��
2024/03/12,06:00,5.1,4.6,��
2024/03/12,06:10,5.1,4.6,��
2024/03/12,06:20,5.3,4.7,��
2024/03/12,06:30,5.2,4.6,��
2024/03/12,06:40,5.2,4.6,��
2024/03/12,06:50,5.1,4.6,��
2024/03/12,07:00,5.1,4.6,��
2024/03/12,07:10,5.1,4.6,��
2024/03/12,07:20,5.2,4.7,��
2024/03/12,07:30,5.1,4.6,��
2024/03/12,07:40,5.2,4.6,��
2024/03/12,07:50,5.2,4.7,��
2024/03/12,08:00,5.2,4.7,��
2024/03/12,08:10,5.2,4.7,��
2024/03/12,08:20,5.1,4.7,��
2024/03/12,08:30,5.3,4.6,��
2024/03/12,08:40,5.3,4.5,��
2024/03/12,08:50,5.2,4.6,��
2024/03/12,09:00,5.2,4.6,��
2024/03/12,09:10,5.1,4.7,��
2024/03/12,09:20,5.2,4.7,��
2024/03/12,09:30,5.3,4.7,��
2024/03/12,09:40,5.1,4.6,��
2024/03/12,09:50,5.1,4.7,��
2024/03/12,10:00,5.3,4.6,��
2024/03/12,10:10,5.3,4.7,��
2024/03/12,10:20,5.2,4.7,��
2024/03/12,10:30,5.2,4.8,��
2024/03/12,10:40,5.3,4.6,�L
2024/03/12,10:50,5.4,4.6,�L
2024/03/12,11:00,5.3,4.6,�L
2024/03/12,11:10,5.5,4.6,�L
2024/03/12,11:20,5.3,4.7,�L
2024/03/12,11:30,5.4,4.7,�L
2024/03/12,11:40,5.5,4.9,�L
2024/03/12,11:50,5.5,4.9,�L
2024/03/12,12:00,5.5,5.0,�L
2024/03/12,12:10,5.5,4.9,�L
2024/03/12,12:20,5.6,4.8,�L
2024/03/12,12:30,5.7,4.9,�L
2024/03/12,12:40,5.5,4.9,�L
2024/03/12,12:50,5.6,4.9,�L
2024/03/12,13:00,5.8,4.9,�L
2024/03/12,13:10,5.7,5.0,�L
2024/03/12,13:20,5.7,5.0,�L
2024/03/12,13:30,5.6,4.7,�L
2024/03/12,13:40,5.5,5.0,�L
2024/03/12,13:50,5.4,4.9,�L
2024/03/12,14:00,5.5,5.0,�L
2024/03/12,14:10,5.5,5.0,�L
2024/03/12,14:20,5.5,4.9,�L
2024/03/12,14:30,5.4,5.0,�L
2024/03/12,14:40,5.5,4.9,�L
2024/03/12,14:50,5.4,4.9,�L
2024/03/12,15:00,5.5,4.9,�L
2024/03/12,15:10,5.5,4.8,�L
2024/03/12,15:20,5.5,4.9,�L
2024/03/12,15:30,5.5,4.9,�L
2024/03/12,15:40,5.5,4.9,�L
2024/03/12,15:50,5.5,4.9,�L
2024/03/12,16:00,5.6,4.9,�L
2024/03/12,16:10,5.4,4.9,�L
2024/03/12,16:20,5.4,5.0,�L
2024/03/12,16:30,5.5,5.1,�L
2024/03/12,16:40,5.6,5.0,�L
2024/03/12,16:50,5.5,4.9,�L
2024/03/12,17:00,5.6,5.1,�L
2024/03/12,17:10,5.5,4.9,�L
2024/03/12,17:20,5.4,5.0,�L
2024/03/12,17:30,5.6,4.9,�L
2024/03/12,17:40,5.5,5.0,�L
2024/03/12,17:50,5.7,5.2,�L
2024/03/12,18:00,5.8,5.1,�L
2024/03/12,18:10,5.8,5.3,�L
2024/03/12,18:20,5.7,5.2,�L
2024/03/12,18:30,5.7,5.3,�L
2024/03/12,18:40,6.0,5.3,�L
2024/03/12,18:50,6.0,5.4,�L
2024/03/12,19:00,6.0,5.6,�L
2024/03/12,19:10,6.2,5.5,�L
2024/03/12,19:20,6.3,5.6,�L
2024/03/12,19:30,6.2,5.7,�L
2024/03/12,19:40,6.5,5.5,�L
2024/03/12,19:50,6.5,5.6,�L
2024/03/12,20:00,6.6,5.4,�L
2024/03/12,20:10,6.5,5.6,�L
2024/03/12,20:20,6.8,5.6,�L
2024/03/12,20:30,7.1,5.7,�L
2024/03/12,20:40,7.1,5.8,�L
2024/03/12,20:50,7.1,5.8,�L
2024/03/12,21:00,7.4,5.9,�L
2024/03/12,21:10,7.5,6.0,�L
2024/03/12,21:20,7.3,6.3,�L
2024/03/12,21:30,7.3,6.0,�L
2024/03/12,21:40,7.2,6.2,�L
2024/03/12,21:50,7.0,6.1,�L
2024/03/12,22:00,7.0,5.9,�L
2024/03/12,22:10,6.8,5.9,�L
2024/03/12,22:20,6.7,5.7,�L
2024/03/12,22:30,6.4,5.7,�L
2024/03/12,22:40,6.2,5.6,�L
2024/03/12,22:50,6.1,5.4,�L
2024/03/12,23:00,5.9,5.2,�L
2024/03/12,23:10,5.7,5.3,�L
2024/03/12,23:20,5.9,5.2,�L
2024/03/12,23:30,5.9,5.0,�L
2024/03/12,23:40,5.8,4.9,�L
2024/03/12,23:50,5.6,4.9,�L
